Regional Weather Roundup
Issued by NWS Cleveland, OH

Home | Current Version | Previous Version | Text Only | Print | Product List | Glossary Off
Versions: 1 2 3 4 5 6 7 8 9 10 11 12 13 14 15 16 17 18 19 20 21 22 23 24 25 26 27 28 29 30 31 32 33 34 35 36 37 38 39 40 41 42 43 44 45 46 47 48 49 50

000
ASUS41 KCLE 241312
RWRCLE
OHIO REGIONAL WEATHER ROUNDUP
NATIONAL WEATHER SERVICE WILMINGTON, OH
900 AM EDT THU MAY 24 2018

NOTE: "FAIR" INDICATES FEW OR NO CLOUDS BELOW 12,000 FEET WITH NO
SIGNIFICANT WEATHER AND/OR OBSTRUCTIONS TO VISIBILITY.

OHZ001>008-015>018-024>027-034-035-043-044-241400-
   NORTHWEST OHIO

CITY           SKY/WX    TMP DP  RH WIND       PRES   REMARKS
DEFIANCE       FAIR      67  58  72 CALM      30.25S
FINDLAY        FAIR      68  52  56 CALM      30.24R
TOLEDO EXPRESS FAIR      69  56  62 VRB3      30.24
TOLEDO EXEC    FAIR      69  55  60 NW3       30.25R
LIMA           FAIR      69  51  52 E3        30.25R
$$

OHZ009>014-019>023-028>033-038-089-241400-
   NORTHEAST OHIO

CITY           SKY/WX    TMP DP  RH WIND       PRES   REMARKS
CLE-HOPKINS    FAIR      66  56  70 CALM      30.26
CLE-LAKEFRONT  FAIR      68  51  54 CALM      30.23S
CUY CO. ARPT   SUNNY     68  57  68 CALM      30.25S
LORAIN-ELYRIA  FAIR      63  53  70 VRB6      30.25R
ASHTABULA      FAIR      63  58  83 CALM      30.25S
AKRON-CANTON   FAIR      68  54  60 NE3       30.25
WOOSTER        FAIR      66  57  72 CALM      30.26R
MANSFIELD      FAIR      68  52  56 CALM      30.26
YOUNGSTOWN     FAIR      63  56  78 CALM      30.25
$$

OHZ042-051>053-060>062-070>072-077>081-241400-
  SOUTHWEST OHIO

CITY           SKY/WX    TMP DP  RH WIND       PRES   REMARKS
CINC-COVINGTON FAIR      68  58  70 E7        30.22
CINC-LUNKEN    FAIR      66  61  84 NE3       30.22S
HAMILTON       FAIR      68  59  73 CALM      30.23S
DAYTON         FAIR      67  52  58 E6        30.25R
WRIGHT-PAT AFB FAIR      66  54  63 NE3       30.24R
DAYTON GENERAL FAIR      68  52  56 E5        30.23R
WILMINGTON     FAIR      65  57  75 E5        30.23R
$$

OHZ036-037-039>041-045>050-054>059-063>069-073>076-082>088-241400-
  CENTRAL AND SOUTHEAST OHIO

CITY           SKY/WX    TMP DP  RH WIND       PRES   REMARKS
COLUMBUS       FAIR      69  51  52 E3        30.23
OSU AIRPORT    FAIR      67  54  63 E5        30.24R
BOLTON FIELD   SUNNY     66  54  63 E5        30.24S
RICKENBACK AFB FAIR      65  55  69 MISG      30.23S
NEWARK         FAIR      64  55  72 CALM      30.24R
MARION         FAIR      67  54  63 CALM      30.25R
LANCASTER      FAIR      65  57  75 CALM      30.24R
ZANESVILLE     FAIR      64  55  72 N5        30.24R
NEW PHILLY     FAIR      63  56  78 CALM      30.25S
$$




USA.gov is the U.S. government's official web portal to all federal, state and local government web resources and services.